Date String (YYYY-MM-DD hh:mm:ss) UTC,Instrument flags,Ambient pressure (hPa),Sample flow (lpm),Bypass flow (lpm),Sample temperature (°C),Ambient temperature (°C),ASC tube jacket temperature (°C),LED temperature (°C),Box temperature (°C),Sample RH (%),Span deviation,Mass concentration (μg/m³),Mass concentration (μg/m³),Mass concentration (μg/m³)
DateTimeUTC,F1_M11,P_M11,Q1_M11,Q2_M11,T1_M11,T2_M11,T3_M11,T4_M11,T5_M11,U1_M11,ZSPAN_M11,X0_M11,X2_M11,X1_M11
2022-03-11 19:00:00,,0827.7,4.99,0.00,23.3,22.5,00.0,32.1,25.1,07.1,-000.7,0015.33,0010.50,0010.05
2022-03-11 19:01:00,,0827.7,5.00,0.00,23.3,22.5,00.0,32.1,25.1,07.1,-000.3,0015.40,0010.46,0009.97
2022-03-11 19:02:00,,0827.7,5.00,0.00,23.3,22.5,00.0,32.2,25.1,07.0,-000.0,0015.46,0010.45,0009.94
2022-03-11 19:03:00,,0827.6,5.00,0.00,23.3,22.5,00.0,32.2,25.1,06.8,0000.2,0015.34,0010.47,0009.95
2022-03-11 19:04:00,,0827.6,5.00,0.00,23.3,22.4,00.0,32.2,25.0,07.3,0000.2,0014.99,0010.47,0009.93
2022-03-11 19:05:00,,0827.6,5.01,0.00,23.2,22.4,00.0,32.2,25.0,07.5,0000.4,0014.90,0010.45,0009.91
2022-03-11 19:06:00,,0827.5,5.00,0.00,23.2,22.4,00.0,32.1,25.0,07.6,0000.3,0015.35,0010.46,0009.93
2022-03-11 19:07:00,,0827.6,4.99,0.00,23.2,22.4,00.0,32.1,25.0,07.7,0000.4,0015.50,0010.55,0009.97
2022-03-11 19:08:00,,0827.6,5.00,0.00,23.2,22.4,00.0,32.1,25.1,07.2,0000.3,0015.55,0010.58,0010.00
2022-03-11 19:09:00,,0827.6,5.00,0.00,23.3,22.5,00.0,32.1,25.1,06.8,-000.0,0015.91,0010.64,0010.02
2022-03-11 19:10:00,,0827.6,5.00,0.00,23.3,22.5,00.0,32.1,25.1,06.9,-000.0,0015.96,0010.66,0010.02
2022-03-11 19:11:00,,0827.5,5.00,0.00,23.3,22.5,00.0,32.1,25.1,07.5,0000.1,0016.04,0010.70,0010.07
2022-03-11 19:12:00,,0827.5,5.00,0.00,23.3,22.6,00.0,32.2,25.2,06.9,0000.3,0015.99,0010.75,0010.13
2022-03-11 19:13:00,,0827.5,4.99,0.00,23.3,22.6,00.0,32.2,25.2,07.1,-000.2,0016.09,0010.84,0010.23
2022-03-11 19:14:00,,0827.5,5.00,0.00,23.3,22.6,00.0,32.2,25.3,07.6,-000.4,0016.13,0010.90,0010.29
2022-03-11 19:15:00,,0827.5,5.00,0.00,23.4,22.7,00.0,32.2,25.3,06.8,-000.7,0016.17,0010.91,0010.33
2022-03-11 19:16:00,,0827.5,5.00,0.00,23.4,22.7,00.0,32.2,25.3,06.6,-000.5,0016.24,0010.93,0010.37
2022-03-11 19:17:00,,0827.4,5.00,0.00,23.4,22.7,00.0,32.2,25.3,06.9,-000.0,0015.63,0011.01,0010.40
2022-03-11 19:18:00,,0827.4,5.00,0.00,23.4,22.7,00.0,32.2,25.3,07.1,-000.2,0015.54,0011.03,0010.44
2022-03-11 19:19:00,,0827.4,5.00,0.00,23.4,22.7,00.0,32.2,25.3,07.3,-000.1,0015.85,0011.09,0010.50
2022-03-11 19:20:00,,0827.5,5.00,0.00,23.4,22.7,00.0,32.2,25.4,06.7,-000.2,0015.73,0011.16,0010.58
2022-03-11 19:21:00,,0827.5,5.00,0.00,23.4,22.7,00.0,32.2,25.4,06.9,0000.2,0015.83,0011.24,0010.67
2022-03-11 19:22:00,,0827.5,5.01,0.00,23.5,22.7,00.0,32.3,25.4,06.6,0000.8,0016.18,0011.35,0010.70
2022-03-11 19:23:00,,0827.5,5.00,0.00,23.5,22.7,00.0,32.3,25.4,06.7,0001.0,0016.36,0011.35,0010.66
2022-03-11 19:24:00,,0827.4,4.99,0.00,23.4,22.7,00.0,32.3,25.3,06.7,0001.7,0016.24,0011.26,0010.57
2022-03-11 19:25:00,,0827.4,4.99,0.00,23.5,22.7,00.0,32.3,25.3,07.1,0002.0,0016.16,0011.19,0010.50
2022-03-11 19:26:00,,0827.4,5.00,0.00,23.5,22.7,00.0,32.3,25.3,06.8,0002.3,0016.06,0011.10,0010.38
2022-03-11 19:27:00,,0827.4,5.01,0.00,23.5,22.7,00.0,32.3,25.3,07.0,0002.5,0015.96,0010.99,0010.26
2022-03-11 19:28:00,,0827.4,5.00,0.00,23.5,22.7,00.0,32.3,25.3,06.8,0002.2,0015.77,0010.82,0010.13
2022-03-11 19:29:00,,0827.4,4.99,0.00,23.4,22.7,00.0,32.3,25.3,06.1,0002.3,0015.59,0010.62,0009.92
2022-03-11 19:30:00,,0827.4,4.99,0.00,23.5,22.7,00.0,32.3,25.3,06.0,0002.8,0015.15,0010.42,0009.68
2022-03-11 19:31:00,,0827.4,5.01,0.00,23.5,22.6,00.0,32.3,25.3,06.4,0003.3,0015.18,0010.19,0009.47
2022-03-11 19:32:00,,0827.4,5.00,0.00,23.5,22.6,00.0,32.3,25.3,06.4,0003.0,0015.94,0009.99,0009.28
2022-03-11 19:33:00,,0827.4,4.99,0.00,23.5,22.7,00.0,32.3,25.3,06.9,0001.8,0016.27,0009.80,0009.13
2022-03-11 19:34:00,,0827.4,4.99,0.00,23.5,22.7,00.0,32.3,25.4,06.7,0002.5,0016.58,0009.66,0009.03
2022-03-11 19:35:00,,0827.4,5.01,0.00,23.5,22.8,00.0,32.3,25.4,06.7,0001.2,0016.91,0009.62,0008.98
2022-03-11 19:36:00,,0827.4,5.00,0.00,23.5,22.8,00.0,32.3,25.5,06.6,0000.7,0017.30,0009.59,0008.92
2022-03-11 19:37:00,,0827.4,4.99,0.00,23.5,22.8,00.0,32.3,25.5,06.3,0000.0,0017.27,0009.58,0008.90
2022-03-11 19:38:00,,0827.4,5.00,0.00,23.5,22.8,00.0,32.4,25.4,06.1,0000.0,0017.05,0009.49,0008.83
2022-03-11 19:39:00,,0827.4,5.01,0.00,23.6,22.8,00.0,32.4,25.4,06.6,0000.0,0016.91,0009.41,0008.76
2022-03-11 19:40:00,,0827.4,5.00,0.00,23.6,22.8,00.0,32.4,25.4,06.5,0000.0,0017.22,0009.34,0008.71
2022-03-11 19:41:00,,0827.4,4.99,0.00,23.6,22.9,00.0,32.4,25.5,06.9,0000.0,0017.13,0009.28,0008.70
2022-03-11 19:42:00,,0827.4,5.00,0.00,23.6,22.9,00.0,32.4,25.5,06.5,0000.0,0016.84,0009.29,0008.70
2022-03-11 19:43:00,,0827.4,5.00,0.00,23.6,22.9,00.0,32.4,25.5,06.8,0000.4,0015.91,0009.25,0008.64
2022-03-11 19:44:00,,0827.4,5.01,0.00,23.6,22.9,00.0,32.4,25.5,06.8,0001.4,0014.94,0009.13,0008.54
2022-03-11 19:45:00,,0827.4,5.00,0.00,23.6,22.8,00.0,32.4,25.5,06.5,0000.7,0014.37,0009.07,0008.45
2022-03-11 19:46:00,,0827.3,4.99,0.00,23.6,22.8,00.0,32.4,25.5,06.9,0000.0,0013.92,0008.92,0008.31
2022-03-11 19:47:00,,0827.2,5.00,0.00,23.6,22.8,00.0,32.5,25.5,06.4,0000.0,0013.24,0008.71,0008.12
2022-03-11 19:48:00,,0827.3,5.01,0.00,23.6,22.8,00.0,32.5,25.4,06.2,0000.0,0012.97,0008.50,0007.91
2022-03-11 19:49:00,,0827.3,5.00,0.00,23.6,22.8,00.0,32.5,25.4,06.4,0000.0,0012.87,0008.34,0007.73
2022-03-11 19:50:00,,0827.2,5.00,0.00,23.6,22.7,00.0,32.5,25.4,06.6,0000.0,0012.69,0008.20,0007.59
2022-03-11 19:51:00,,0827.4,4.99,0.00,23.6,22.7,00.0,32.5,25.4,06.4,0000.3,0012.46,0008.07,0007.45
2022-03-11 19:52:00,,0827.5,5.01,0.00,23.6,22.7,00.0,32.5,25.3,06.5,0000.0,0012.58,0007.94,0007.29
2022-03-11 19:53:00,,0827.6,4.99,0.00,23.5,22.7,00.0,32.5,25.3,06.4,0000.0,0012.24,0007.75,0007.12
2022-03-11 19:54:00,,0827.6,5.00,0.00,23.5,22.6,00.0,32.5,25.2,06.6,0000.0,0012.03,0007.62,0007.02
2022-03-11 19:55:00,,0827.6,5.01,0.00,23.5,22.6,00.0,32.5,25.2,06.5,0000.0,0012.03,0007.57,0006.94
2022-03-11 19:56:00,,0827.3,4.99,0.00,23.5,22.7,00.0,32.5,25.2,06.4,0000.0,0011.99,0007.50,0006.87
2022-03-11 19:57:00,,0827.3,5.02,0.00,23.5,22.7,00.0,32.5,25.2,06.3,0000.0,0011.95,0007.38,0006.77
2022-03-11 19:58:00,,0827.2,4.99,0.00,23.5,22.7,00.0,32.5,25.2,06.4,0000.0,0012.55,0007.43,0006.78
2022-03-11 19:59:00,,0827.2,4.99,0.00,23.5,22.7,00.0,32.5,25.2,06.7,0000.4,0012.81,0007.55,0006.89
